This demonstration page uses our WeatherBlox Daily Observations layout. Learn more.

Left ArrowRight Arrow

Hourly Observations for March 9, 2019

Temp ( °F °C ) Dew Point ( °F °C ) Humidity (%) Winds ( mph kmh ) Pressure ( in mb ) Visibility ( mi km ) Precip ( " mm )
12:15 am 00:15 Cloudy 33 0.5 31 -0.5 93 93 ESE 9 15 30.16 1021 10 16 0.00 0.00
12:35 am 00:35 Cloudy 33 0.4 31 -0.5 94 94 SE 6 9 30.16 1021 10 16 0.00 0.00
12:55 am 00:55 Cloudy 32 0.2 31 -0.5 95 95 SE 9 15 30.16 1021 10 16 0.00 0.00
1:15 am 01:15 Cloudy 32 0 31 -0.6 96 96 ESE 12 19 30.14 1021 10 16 0.00 0.00
1:35 am 01:35 Cloudy 32 0 31 -0.6 96 96 E 10 17 30.14 1021 10 16 0.00 0.00
1:55 am 01:55 Cloudy 32 0 31 -0.5 96 96 ESE 12 19 30.14 1021 10 16 0.00 0.00
2:15 am 02:15 Cloudy 32 0 31 -0.5 96 96 ESE 8 13 30.14 1021 10 16 0.00 0.00
2:35 am 02:35 Cloudy 32 0 31 -0.5 96 96 SE 8 13 30.14 1021 7 11 0.00 0.00
2:55 am 02:55 Cloudy 32 -0.2 31 -0.5 98 98 SE 8 13 30.14 1021 7 11 0.00 0.00
3:15 am 03:15 Cloudy 32 -0.2 31 -0.5 98 98 ESE 12 19 30.13 1020 7 11 0.00 0.00
3:35 am 03:35 Cloudy 31 -0.3 31 -0.5 99 99 ESE 8 13 30.13 1020 7 11 0.00 0.00
3:55 am 03:55 Cloudy 32 -0.2 31 -0.5 98 98 ESE 8 13 30.12 1020 7 11 0.00 0.00
4:15 am 04:15 Cloudy 31 -0.3 31 -0.5 99 99 ESE 9 15 30.11 1020 7 11 0.00 0.00
4:35 am 04:35 Cloudy 31 -0.3 31 -0.5 99 99 ESE 8 13 30.12 1020 7 11 0.00 0.00
4:55 am 04:55 Cloudy 31 -0.3 31 -0.5 99 99 ESE 10 17 30.11 1020 7 11 0.00 0.00
5:15 am 05:15 Cloudy with Mist and Fog 31 -0.5 31 -0.5 100 100 ESE 9 15 30.10 1019 5 8 0.00 0.00
5:35 am 05:35 Cloudy with Mist and Fog 31 -0.5 31 -0.5 100 100 ESE 9 15 30.11 1020 5 8 0.00 0.00
5:55 am 05:55 Cloudy with Mist and Fog 31 -0.5 31 -0.5 100 100 ESE 9 15 30.10 1019 5 8 0.00 0.00
6:15 am 06:15 Cloudy with Mist and Fog 31 -0.5 31 -0.5 100 100 ESE 9 15 30.10 1019 5 8 0.00 0.00
6:35 am 06:35 Cloudy with Mist and Fog 31 -0.5 31 -0.5 100 100 ESE 12 19 30.09 1019 5 8 0.00 0.00
6:55 am 06:55 Cloudy with Mist and Fog 31 -0.5 31 -0.5 100 100 ESE 16 26 30.09 1019 5 8 0.00 0.00
7:15 am 07:15 Cloudy with Mist and Fog 31 -0.6 31 -0.6 100 100 ESE 14 22 30.09 1019 5 8 0.00 0.00
7:35 am 07:35 Cloudy with Mist and Fog 31 -0.6 31 -0.6 100 100 ESE 13 20 30.07 1018 3 5 0.00 0.00
7:55 am 07:55 Cloudy with Mist and Fog 31 -0.5 31 -0.5 100 100 ESE 10 17 30.07 1018 3 5 0.00 0.00
8:15 am 08:15 Cloudy with Mist and Fog 31 -0.3 31 -0.3 100 100 E 12 19 30.07 1018 3 4 0.00 0.00
8:35 am 08:35 Cloudy with Mist and Fog 32 0 32 0 100 100 E 16 26 30.05 1018 2 3 0.00 0.00
8:55 am 08:55 Cloudy with Mist and Fog 32 0 32 0 100 100 E 12 19 30.04 1017 2 2 0.00 0.00
9:15 am 09:15 Cloudy with Mist and Fog 32 0 32 0 100 100 ESE 13 20 30.03 1017 2 2 0.00 0.00
9:35 am 09:35 Cloudy with Mist and Fog 33 0.3 33 0.3 100 100 E 13 20 30.01 1016 2 2 0.00 0.00
9:55 am 09:55 Cloudy with Mist and Fog 33 0.6 33 0.6 100 100 ESE 12 19 30.01 1016 2 3 0.00 0.00
10:15 am 10:15 Cloudy with Mist and Fog 34 1 34 1 100 100 ESE 15 24 29.99 1016 4 6 0.00 0.00
10:35 am 10:35 Cloudy 35 1.4 34 1.3 99 99 ESE 13 20 29.98 1015 7 11 0.00 0.00
10:55 am 10:55 Cloudy 35 1.7 35 1.5 99 99 ESE 16 26 29.96 1015 10 16 0.00 0.00
11:15 am 11:15 Cloudy 35 1.8 35 1.5 98 98 ESE 17 28 29.95 1014 10 16 0.00 0.00
11:35 am 11:35 Cloudy 35 1.9 35 1.6 98 98 ESE 17 28 29.96 1015 10 16 0.00 0.00
11:55 am 11:55 Cloudy 35 1.8 35 1.7 99 99 ESE 16 26 29.95 1014 7 11 0.00 0.00
12:15 pm 12:15 Cloudy with Mist and Fog 36 2 35 1.8 99 99 ESE 18 30 29.91 1013 5 8 0.00 0.00
12:35 pm 12:35 Cloudy with Nearby Thunderstorms 36 2 36 2 100 100 ESE 18 30 29.88 1012 5 8 0.00 0.00
12:55 pm 12:55 Cloudy with Mist and Fog 36 2 36 2 100 100 ESE 17 28 29.88 1012 5 8 0.00 0.00
1:15 pm 13:15 Cloudy with Mist and Fog 36 2 36 2 100 100 ESE 15 24 29.84 1010 4 6 0.00 0.00
1:35 pm 13:35 Cloudy with Nearby Thunderstorms 35 1.7 35 1.7 100 100 ESE 17 28 29.80 1009 3 4 0.00 0.00
1:55 pm 13:55 Cloudy with Nearby Thunderstorms 35 1.7 35 1.7 100 100 ESE 15 24 29.83 1010 2 3 0.05 1.27
2:15 pm 14:15 Cloudy with Light Rain 36 2 36 2 100 100 E 14 22 29.76 1008 1 2 0.09 2.29
2:35 pm 14:35 Cloudy with Nearby Thunderstorms 36 2 36 2 100 100 E 17 28 29.72 1006 3 4 0.17 4.32
2:55 pm 14:55 Cloudy with Nearby Thunderstorms 36 2.1 36 2.1 100 100 ESE 14 22 29.73 1007 3 5 0.21 5.33
3:15 pm 15:15 Cloudy 37 2.5 37 2.5 100 100 SSE 10 17 29.75 1007 1 2 0.09 2.29
3:35 pm 15:35 Cloudy with Light Snow 37 2.6 37 2.6 100 100 E 13 20 29.70 1006 1 2 0.23 5.84
3:55 pm 15:55 Cloudy with Rain 37 2.8 37 2.8 100 100 ESE 20 31 29.65 1004 3 4 0.31 7.87
4:15 pm 16:15 Cloudy with Rain 38 3.1 38 3.1 100 100 ESE 16 26 29.64 1004 3 5 0.02 0.51
4:35 pm 16:35 Cloudy with Light Rain 38 3.3 38 3.3 100 100 ESE 18 30 29.60 1003 3 4 0.05 1.27
4:55 pm 16:55 Cloudy with Rain 39 3.7 39 3.7 100 100 ESE 15 24 29.58 1002 4 6 0.08 2.03
5:15 pm 17:15 Cloudy with Rain 40 4.2 40 4.2 100 100 SE 16 26 29.56 1001 3 5 0.04 1.02
5:35 pm 17:35 Cloudy with Heavy Rain 41 5 41 5 100 100 SE 16 26 29.54 1000 3 4 0.12 3.05
5:55 pm 17:55 Cloudy with Light Rain 42 5.5 42 5.5 100 100 ESE 20 31 29.48 998 4 6 0.18 4.57
6:15 pm 18:15 Cloudy with Light Rain 43 6 43 6 100 100 SE 18 30 29.48 998 4 6 0.03 0.76
6:35 pm 18:35 Cloudy 44 6.6 44 6.6 100 100 SE 15 24 29.46 998 10 16 0.03 0.76
6:55 pm 18:55 Cloudy with Light Rain 46 7.6 46 7.6 100 100 SSE 17 28 29.46 998 7 11 0.05 1.27
7:15 pm 19:15 Cloudy with Light Rain 47 8.5 47 8.5 100 100 S 17 28 29.47 998 7 11 0.01 0.25
7:35 pm 19:35 Cloudy 47 8.6 47 8.6 100 100 S 15 24 29.46 997 10 16 0.02 0.51
7:55 pm 19:55 Mostly Cloudy 48 9 48 9 100 100 S 13 20 29.44 997 10 16 0.02 0.51
8:15 pm 20:15 Mostly Cloudy 49 9.2 49 9.2 100 100 S 13 20 29.43 997 10 16 0.00 0.00
8:35 pm 20:35 Cloudy 49 9.7 49 9.7 100 100 S 15 24 29.43 997 10 16 0.00 0.00
8:55 pm 20:55 Cloudy 50 10 50 10 100 100 W 18 30 29.48 998 10 16 0.00 0.00
9:15 pm 21:15 Cloudy 47 8.5 47 8.5 100 100 WSW 14 22 29.50 999 3 5 0.13 3.30
9:35 pm 21:35 Cloudy with Thunderstorms 47 8.3 47 8.3 100 100 SW 14 22 29.48 998 7 11 0.18 4.57
9:55 pm 21:55 Cloudy with Rain 47 8.5 47 8.5 100 100 SSW 13 20 29.49 999 10 16 0.22 5.59
10:15 pm 22:15 Cloudy with Nearby Thunderstorms 47 8.4 47 8.4 100 100 SW 9 15 29.49 999 10 16 0.00 0.00
10:35 pm 22:35 Mostly Cloudy 46 8 46 8 100 100 SSW 9 15 29.49 999 10 16 0.00 0.00
10:55 pm 22:55 Cloudy with Rain 47 8.4 47 8.4 100 100 WSW 14 22 29.51 999 10 16 0.00 0.00
11:15 pm 23:15 Cloudy with Rain 49 9.5 49 9.4 99 99 WSW 16 26 29.50 999 5 8 0.04 1.02
11:35 pm 23:35 Cloudy with Rain 49 9.2 49 9.2 100 100 WSW 16 26 29.51 999 7 11 0.05 1.27
11:55 pm 23:55 Cloudy with Light Rain 49 9.5 49 9.5 100 100 WSW 25 41 29.52 1000 7 11 0.06 1.52

Powered by AerisWeather